N7QNM-13 Weather Reports


time (UTC)temp
C
wind
direction
speed
KPH
gust
KPH
rain 1hr
cm
rain 24hr
cm
rain mn
cm
humidity
%
barometer
mb
20260904094029 7 0.0 0.0 0.00 0.00 0.00 85 1010.1
20260904093029 7 0.0 0.0 0.00 0.00 0.00 84 1010.1
20260904092047 7 0.0 0.0 0.00 0.00 0.00 84 1010.1
20260904091028 8 0.0 0.0 0.00 0.00 0.00 84 1010.0
20260904090028 8 0.0 0.0 0.00 0.00 0.00 83 1010.0
20260904085027 8 0.0 0.0 0.00 0.00 0.00 83 1010.1
20260904084030 8 184 3.2 4.8 0.00 0.00 0.00 83 1010.1
20260904083032 8 173 3.2 4.8 0.00 0.00 0.00 83 1010.1
20260904082049 8 198 1.6 3.2 0.00 0.00 0.00 82 1010.1
20260904081028 8 180 0.0 3.2 0.00 0.00 0.00 81 1009.9
20260904080028 9 286 1.6 4.8 0.00 0.00 0.00 81 1009.9
20260904075029 9 261 1.6 4.8 0.00 0.00 0.00 80 1010.0
20260904074030 10 0.0 0.0 0.00 0.00 0.00 79 1009.9
20260904073028 10 0.0 0.0 0.00 0.00 0.00 78 1009.9
20260904072030 10 0.0 0.0 0.00 0.00 0.00 78 1009.9
20260904071029 10 0.0 0.0 0.00 0.00 0.00 77 1009.9
20260904070030 10 0.0 0.0 0.00 0.00 0.00 75 1009.8
20260904065034 10 90 0.0 1.6 0.00 0.00 0.00 72 1009.8
20260904064031 11 113 0.0 1.6 0.00 0.00 0.00 70 1009.7
20260904063029 11 0.0 0.0 0.00 0.00 0.00 69 1009.8
20260904062051 11 180 3.2 4.8 0.00 0.00 0.00 69 1009.7
20260904060029 12 178 3.2 4.8 0.00 0.03 0.00 67 1009.7
20260904055050 12 154 3.2 6.4 0.00 0.03 0.00 65 1009.6
20260904054030 13 0.0 0.0 0.00 0.05 0.00 62 1009.6
20260904053030 13 188 4.8 6.4 0.00 0.05 0.00 60 1009.6
20260904052052 14 72 3.2 4.8 0.00 0.05 0.00 59 1009.7
20260904051030 15 167 1.6 3.2 0.00 0.05 0.00 55 1009.6
20260904050030 16 226 3.2 4.8 0.00 0.05 0.00 54 1009.7
20260904045032 16 241 4.8 8.0 0.00 0.08 0.00 53 1009.6
20260904044030 16 267 4.8 8.0 0.00 0.08 0.00 52 1009.6
20260904043031 16 194 4.8 9.7 0.00 0.10 0.00 52 1009.4
20260904042031 16 230 9.7 20.9 0.00 0.10 0.00 53 1009.3
20260904041031 17 295 8.0 12.9 0.00 0.13 0.00 52 1009.4
20260904040031 17 180 14.5 17.7 0.00 0.15 0.00 50 1008.8
20260904035031 17 162 12.9 17.7 0.00 0.15 0.00 49 1008.7
20260904034033 17 154 16.1 19.3 0.00 0.18 0.00 48 1008.6
20260904033031 17 160 16.1 24.1 0.00 0.18 0.00 47 1008.4
20260904032053 17 137 17.7 20.9 0.00 0.18 0.00 47 1008.4
20260904031033 17 166 17.7 24.1 0.00 0.18 0.00 46 1008.3
20260904030034 18 154 14.5 19.3 0.00 0.20 0.00 46 1008.2
20260904025052 18 162 12.9 17.7 0.00 0.20 0.00 45 1008.1
20260904024032 18 162 16.1 19.3 0.00 0.23 0.00 45 1008.0
20260904023032 19 155 14.5 16.1 0.00 0.25 0.00 44 1007.9
20260904022054 20 160 17.7 22.5 0.00 0.25 0.00 42 1007.9
20260904021032 21 139 16.1 19.3 0.00 0.28 0.00 40 1008.0
20260904020114 21 143 14.5 19.3 0.00 0.28 0.00 38 1008.0
20260904015053 21 138 9.7 14.5 0.00 0.28 0.00 36 1008.1
20260904014034 21 141 11.3 17.7 0.00 0.30 0.00 35 1008.1
20260904013034 21 150 12.9 16.1 0.00 0.30 0.00 36 1008.1
20260904012035 21 154 11.3 12.9 0.00 0.33 0.00 37 1008.1
20260904011033 21 167 12.9 17.7 0.00 0.36 0.00 37 1008.1
20260904010033 20 165 11.3 14.5 0.00 0.38 0.00 37 1008.1
20260904005035 20 149 12.9 17.7 0.00 0.41 0.00 37 1008.1
20260904004035 20 157 9.7 16.1 0.00 0.43 0.00 36 1008.2
20260904003033 20 164 9.7 12.9 0.00 0.48 0.00 36 1008.2
20260904002035 20 197 11.3 17.7 0.00 0.51 0.00 36 1008.2
20260904001034 21 176 12.9 17.7 0.00 0.56 0.00 35 1008.4
20260904000034 21 165 11.3 17.7 0.00 0.58 0.00 35 1008.4
20260903235036 21 174 11.3 12.9 0.00 0.61 0.00 36 1008.5
20260903234054 21 183 9.7 16.1 0.00 0.64 0.00 35 1008.5
20260903233034 22 176 12.9 22.5 0.00 0.64 0.00 34 1008.5
20260903232036 21 180 11.3 14.5 0.00 0.66 0.00 37 1008.5
20260903231034 21 184 11.3 16.1 0.00 0.69 0.00 36 1008.6
20260903230055 21 204 9.7 19.3 0.00 0.69 0.00 36 1008.6
20260903225034 22 169 14.5 17.7 0.00 0.69 0.00 36 1008.7
20260903224035 22 160 14.5 22.5 0.00 0.69 0.00 35 1008.9
20260903223035 22 182 14.5 25.7 0.00 0.69 0.00 36 1008.8
20260903222035 22 166 12.9 17.7 0.00 0.69 0.00 36 1008.9
20260903221057 22 235 9.7 16.1 0.00 0.69 0.00 36 1008.9
20260903220035 22 187 11.3 16.1 0.00 0.69 0.00 36 1008.9
20260903215036 21 182 14.5 17.7 0.00 0.69 0.00 37 1009.0
20260903214035 22 246 12.9 16.1 0.00 0.71 0.00 37 1009.1
20260903213035 22 181 11.3 19.3 0.00 0.74 0.00 38 1009.2
20260903212035 22 224 11.3 16.1 0.00 0.74 0.00 38 1009.2
20260903211036 22 239 9.7 16.1 0.00 0.74 0.00 39 1009.3
20260903210036 21 166 16.1 20.9 0.00 0.74 0.00 40 1009.4
20260903205036 21 213 11.3 19.3 0.00 0.74 0.00 41 1009.5
20260903204036 21 173 17.7 24.1 0.00 0.74 0.00 43 1009.6
20260903203058 20 168 14.5 24.1 0.00 0.74 0.00 43 1009.9
20260903202058 20 159 11.3 19.3 0.00 0.74 0.00 44 1009.9
20260903201038 21 153 14.5 19.3 0.00 0.74 0.00 43 1010.0
20260903200057 21 202 12.9 20.9 0.00 0.74 0.00 43 1010.0
20260903195037 20 142 11.3 17.7 0.00 0.74 0.00 43 1010.1
20260903194037 20 156 16.1 20.9 0.00 0.74 0.00 46 1010.2
20260903193037 20 172 11.3 17.7 0.00 0.74 0.00 46 1010.2
20260903192039 20 180 17.7 19.3 0.00 0.74 0.00 47 1010.2
20260903191039 20 152 12.9 19.3 0.00 0.74 0.00 48 1010.3
20260903190037 20 160 14.5 19.3 0.00 0.74 0.00 48 1010.5
20260903185058 20 148 16.1 20.9 0.00 0.74 0.00 49 1010.6
20260903184038 20 148 12.9 17.7 0.00 0.74 0.00 52 1010.7
20260903183059 19 157 17.7 22.5 0.00 0.74 0.00 55 1010.7
20260903182038 18 137 12.9 19.3 0.00 0.74 0.00 54 1010.7
20260903181040 18 154 14.5 17.7 0.00 0.74 0.00 54 1010.7
20260903180038 18 160 16.1 20.9 0.00 0.74 0.00 57 1010.8
20260903175039 18 158 14.5 17.7 0.00 0.74 0.00 58 1010.8
20260903174039 18 167 12.9 17.7 0.00 0.74 0.00 58 1010.9
20260903173039 18 166 11.3 14.5 0.00 0.74 0.00 58 1011.0
20260903172038 18 171 8.0 11.3 0.00 0.74 0.00 58 1011.1
20260903171040 18 208 8.0 16.1 0.00 0.74 0.00 56 1011.0
20260903170040 17 189 6.4 9.7 0.00 0.74 0.00 57 1011.1
20260903165039 16 163 12.9 16.1 0.00 0.74 0.00 62 1011.0
20260903164039 15 170 11.3 19.3 0.00 0.74 0.00 64 1011.0
20260903163040 15 164 11.3 14.5 0.00 0.74 0.00 63 1011.0
20260903162040 15 180 11.3 14.5 0.00 0.74 0.00 64 1011.0
20260903161040 15 176 11.3 16.1 0.00 0.74 0.00 66 1011.0
20260903160041 15 214 8.0 12.9 0.00 0.74 0.00 65 1011.0
20260903155100 14 172 12.9 19.3 0.00 0.74 0.00 67 1011.0
20260903154122 13 158 8.0 14.5 0.00 0.74 0.00 67 1010.9
20260903153040 13 185 12.9 20.9 0.00 0.74 0.00 67 1011.0
20260903152040 13 171 12.9 17.7 0.00 0.74 0.00 67 1011.1
20260903151040 13 183 9.7 12.9 0.00 0.74 0.00 67 1011.0
20260903145042 13 179 9.7 14.5 0.00 0.74 0.00 75 1011.1
20260903144040 13 99 1.6 4.8 0.00 0.74 0.00 83 1011.1
20260903143041 12 0.0 0.0 0.00 0.74 0.00 85 1011.0
20260903142041 11 0.0 4.8 0.00 0.74 0.00 86 1010.9
20260903141042 11 108 1.6 3.2 0.00 0.74 0.00 87 1010.8
20260903140041 10 0.0 0.0 0.00 0.74 0.00 87 1010.7
20260903135122 10 113 1.6 4.8 0.00 0.74 0.00 87 1010.7
20260903134041 10 135 3.2 4.8 0.00 0.74 0.00 86 1010.6
20260903133041 10 0.0 1.6 0.00 0.74 0.00 86 1010.5
20260903132043 10 105 1.6 4.8 0.00 0.74 0.00 85 1010.4
20260903131042 9 50 3.2 4.8 0.00 0.74 0.00 85 1010.3
20260903130043 9 152 1.6 3.2 0.00 0.74 0.00 84 1010.3
20260903125043 9 343 1.6 4.8 0.00 0.74 0.00 83 1010.3
20260903124043 9 0.0 0.0 0.00 0.74 0.00 83 1010.4
20260903123047 9 103 0.0 3.2 0.00 0.74 0.00 82 1010.3
20260903122042 9 0.0 0.0 0.00 0.74 0.00 81 1010.3
20260903121042 8 203 1.6 4.8 0.00 0.74 0.00 80 1010.3
20260903120044 9 351 0.0 1.6 0.00 0.74 0.00 79 1010.2
20260903115044 9 164 1.6 3.2 0.00 0.74 0.00 78 1010.1
20260903114042 10 184 3.2 4.8 0.00 0.74 0.00 77 1010.1
20260903113042 10 190 3.2 4.8 0.00 0.74 0.00 76 1010.1
20260903112044 10 183 1.6 4.8 0.00 0.74 0.00 74 1010.0
20260903111044 11 0.0 0.0 0.00 0.74 0.00 72 1009.9
20260903110043 11 208 1.6 4.8 0.00 0.74 0.00 70 1009.8
20260903105043 12 195 4.8 8.0 0.00 0.74 0.00 68 1009.7
20260903104043 12 238 3.2 4.8 0.00 0.74 0.00 65 1009.6
20260903103043 13 324 6.4 14.5 0.00 0.74 0.00 66 1009.4
20260903102044 13 178 16.1 17.7 0.00 0.74 0.00 67 1009.1
20260903101044 13 180 11.3 19.3 0.00 0.74 0.00 65 1009.0
20260903100044 13 164 16.1 24.1 0.00 0.74 0.00 68 1008.8
20260903095043 13 173 9.7 16.1 0.00 0.74 0.00 70 1009.0